Weather History for Falls City, NE

Change the Weather History Date:

Wednesday, August 21, 2013

  Actual Average Record
Temperature  
Mean Temperature 80 °F -  
Max Temperature 89 °F 87 °F 100 °F (2014)
Min Temperature 70 °F 63 °F 46 °F (1956)
Cooling Degree Days 14    
Growing Degree Days 30 (Base 50)    
Moisture  
Dew Point 70 °F    
Average Humidity 76    
Maximum Humidity 96    
Minimum Humidity 57    
Precipitation  
Precipitation 0.00 in - - ()
Sea Level Pressure  
Sea Level Pressure 29.98 in    
Wind  
Wind Speed 8 mph (South)    
Max Wind Speed 13 mph    
Max Gust Speed -    
Visibility 10 miles    
Events      
Averages and records for this station are not official NWS values.
T = Trace of Precipitation, MM = Missing Value Source: NWS Daily Summary

Daily Weather History Graph

Daily Weather History Graph

Search for Another Location

Airport:

Trip Planner

Search our weather history database for the weather conditions in past years. The results will help you decide how hot, cold, wet, or windy it might be!

Date:

Astronomy

Aug. 21, 2013 Rise Set
Actual Time 6:39 AM CDT 8:10 PM CDT
Civil Twilight 6:11 AM CDT 8:38 PM CDT
Nautical Twilight 5:36 AM CDT 9:12 PM CDT
Astronomical Twilight 5:00 AM CDT 9:49 PM CDT
Moon 8:19 PM CDT (8/21) 7:21 AM CDT (8/21)
Length of Visible Light 14h 27m
Length of Day
13h 30m
Waxing Gibbous, 99% of the Moon is Illuminated
Aug 21
Waxing Gibbous
Aug 28
Last Quarter
Sep 5
New
Sep 12
First Quarter
Sep 19
Full

Hourly Weather History & Observations

Time (CDT) Temp. Heat Index Dew Point Humidity Pressure Visibility Wind Dir Wind Speed Gust Speed Precip Events Conditions
12:53 AM 75.0 °F - 68.0 °F 79% 29.97 in 10.0 mi South 10.4 mph - N/A   Clear
1:53 AM 73.0 °F - 68.0 °F 84% 29.98 in 10.0 mi South 8.1 mph - N/A   Clear
2:53 AM 72.0 °F - 66.9 °F 84% 29.97 in 10.0 mi South 6.9 mph - N/A   Clear
3:53 AM 71.1 °F - 66.9 °F 87% 29.96 in 10.0 mi South 8.1 mph - N/A   Clear
4:53 AM 71.1 °F - 66.0 °F 84% 29.96 in 10.0 mi SSW 12.7 mph - N/A   Clear
5:53 AM 70.0 °F - 64.9 °F 84% 29.97 in 10.0 mi SSW 11.5 mph - N/A   Clear
6:53 AM 70.0 °F - 64.9 °F 84% 29.99 in 10.0 mi South 5.8 mph - N/A   Clear
7:53 AM 71.1 °F - 64.9 °F 81% 30.01 in 10.0 mi South 3.5 mph - N/A   Clear
8:53 AM 73.9 °F - 66.9 °F 79% 30.02 in 10.0 mi South 3.5 mph - N/A   Clear
9:53 AM 77.0 °F - 68.0 °F 74% 30.02 in 10.0 mi South 8.1 mph - N/A   Clear
10:53 AM 80.1 °F 83.2 °F 70.0 °F 71% 30.02 in 10.0 mi South 9.2 mph - N/A   Clear
11:53 AM 82.9 °F 87.0 °F 70.0 °F 65% 30.01 in 10.0 mi South 6.9 mph - N/A   Clear
12:53 PM 84.9 °F 90.1 °F 71.1 °F 63% 30.00 in 10.0 mi South 10.4 mph - N/A   Clear
1:53 PM 87.1 °F 93.6 °F 72.0 °F 61% 29.99 in 10.0 mi South 10.4 mph - N/A   Clear
2:53 PM 88.0 °F 94.7 °F 72.0 °F 59% 29.98 in 10.0 mi South 11.5 mph - N/A   Clear
3:53 PM 89.1 °F 96.0 °F 72.0 °F 57% 29.96 in 10.0 mi South 9.2 mph - N/A   Clear
4:53 PM 89.1 °F 96.0 °F 72.0 °F 57% 29.96 in 10.0 mi South 6.9 mph - N/A   Clear
5:53 PM 88.0 °F 95.6 °F 73.0 °F 61% 29.95 in 10.0 mi South 9.2 mph - N/A   Clear
6:53 PM 86.0 °F 95.1 °F 75.0 °F 70% 29.94 in 10.0 mi SSE 5.8 mph - N/A   Clear
7:53 PM 80.1 °F 85.1 °F 75.0 °F 85% 29.95 in 5.0 mi SE 4.6 mph - N/A   Haze
8:53 PM 79.0 °F - 73.0 °F 82% 29.95 in 10.0 mi South 6.9 mph - N/A   Clear
9:53 PM 73.0 °F - 71.1 °F 93% 29.96 in 10.0 mi SSE 5.8 mph - N/A   Clear
10:53 PM 71.1 °F - 70.0 °F 96% 29.96 in 6.0 mi SSE 6.9 mph - N/A   Clear
11:53 PM 73.0 °F - 70.0 °F 90% 29.97 in 10.0 mi SSE 5.8 mph - N/A   Clear